EKRAN 2 DEB, 59988

Orbit data source: Space-Track

EKRAN 2 DEB, 59988 is space debris in GEO originally from a launch on Tue, 20 Sep 1977 UTC launched from the Tyuratam Missile And Space Complex (TTMTR). Debris objects in space refer to the collection of defunct objects orbiting the Earth. Examples of debris include non-operational satellites, rocket bodies, and fragments generated from explosions, collisions, or faulty payload assembly.

Loading next visibility...
EKRAN 2 DEB details
Identifier
59988, 1977-092P
Orbit
GEO
Last TLE update23 hours ago
Origin
Flag of CISGUKOS RVSN (CIS)
ManufacturerUnknown
MissionSpacecraft
Bus & MotorUnknown
MassUnknown
Launch date (UTC)
1977-09-20 (47 years ago)
Launch vehicleUnknown
Launch site
Tyuratam Missile And Space Complex (TTMTR)
Object type
Payload
Rocket body
Debris
Shape & HBRUnknown
Radar Cross SectionRCS unknown

Expand to show TLE details & history

TLE from 23 hours ago
0 EKRAN 2 DEB
1 59988U 77092P   25035.23628352 -.00000212  00000-0  00000-0 0  9996
2 59988   5.2134 278.7074 0050400  48.4732 157.4221  1.00884055 70020
Epoch: 2025-02-04T05:40Z
Definitive object data (Epoch: 2025-02-04T05:40:14.896Z)
Latitude-2.28379°
Longitude-94.94529°
Altitude35,812.145 km
Speed3.067 km/s
True Right ascension08h 19m 02s
True Declination-2° 16' 53"
Sunlit
Object was in daylight at TLE epoch
Visualization TLE readout
Latitude-1.48484°
Longitude-104.38018°
Altitude35,795.973 km
Speed3.068 km/s
Apparent Right ascension07h 47m 45s
Apparent Declination-7° 51' 40"
Sunlit
Object is in daylight
Visualization observer readout
Local Sidereal Time06:51:38
Azimuth161.593° S
Elevation40.493°
Doppler factor1
Orbital elements
Apogee altitude35,828.539 km
Perigee altitude35,405.229 km
Semi-major axis41,995.021 km
Eccentricity0.00504
Inclination5.2134°
RAAN278.7074°
Arg. of periapsis48.4732°
True anomaly157.64256°
Mean anomaly157.4221°
Eccentric anomaly157.53246°
Mean motion0.2522 °/min
BSTARUnknown
Orbital period1427.43 mins
Loading historical data...
59988 neighbors
Authenticating...
Loading maneuver chart data...
Loading historical data...
Loading historical data...
Loading historical data...
Loading historical data...
Loading historical data...
Loading historical data...
Loading historical data...

EKRAN 2 DEB Visibility forecast

Observer location: undefined°, undefined

Span
Click to sort rows by Start time (UTC) header in descending order
Start Az.
Max El. time (UTC)
Max El. Az.
Max El.
End time (UTC)
End Az.
1440 mins2025-02-05 04:49:44.184Z161.6° S2025-02-05 21:23:44.184Z156.286° SSE36.221°2025-02-06 04:49:44.184Z158.654° S
|